Regional Weather Roundup
Issued by NWS

Home | Current Version | Previous Version | Graphics & Text | Print | Product List | Glossary On
Versions: 1 2 3 4 5 6 7 8 9 10 11 12 13 14 15 16 17 18 19 20 21 22 23 24 25 26 27 28 29 30 31 32 33 34 35 36 37 38 39 40 41 42 43 44 45 46 47 48 49 50
000
ASUS43 KMKX 171411
RWRWI

WISCONSIN REGIONAL WEATHER ROUNDUP
NATIONAL WEATHER SERVICE MILWAUKEE/SULLIVAN WI
800 AM CST TUE JAN 17 2017

NOTE: "FAIR" INDICATES FEW OR NO CLOUDS BELOW 12,000 FEET WITH NO
SIGNIFICANT WEATHER AND/OR OBSTRUCTIONS TO VISIBILITY.

WIZ001-002-006>008-014>016-023>028-171500-
NORTHWEST WISCONSIN

CITY           SKY/WX    TMP DP  RH WIND       PRES   REMARKS
SUPERIOR ARPT  CLOUDY    22  20  89 CALM      29.97R
ASHLAND        CLEAR     18  16  92 S3        29.95R
HAYWARD        CLOUDY    29  22  75 CALM      29.92S
SIREN          CLEAR     24  20  85 CALM      29.95R
CUMBERLAND     CLOUDY    32  30  93 NW8       29.91R WCI  25
RICE LAKE      MIX PCPN  33  32  97 N6        29.92R WCI  27
CHETEK         MIX PCPN  32  32 100 CALM      29.91R
LADYSMITH      DRIZZLE   34  33  96 NE6       29.91R WCI  29
EAU CLAIRE     MIX PCPN  33  32  96 N3        29.89S FOG
MENOMONIE      MIX PCPN  33  33 100 NW3       29.91R
NEW RICHMOND   CLOUDY    32  32 100 N6        29.93S FOG     WCI  26
OSCEOLA        CLOUDY    30  30 100 NW3       29.97S
$$

WIZ003>005-009-010-017-018-171500-
NORTH CENTRAL WISCONSIN

CITY           SKY/WX    TMP DP  RH WIND       PRES   REMARKS
MANITOWISH WTR CLOUDY    27  26  96 CALM      29.89S
ARBOR VITAE    MIX PCPN  32  28  87 CALM      29.89R
WOODRUFF       MIX PCPN  32  28  87 CALM      29.89R
RHINELANDER    CLOUDY    31  29  92 NE5       29.88S WCI  26
EAGLE RIVER    CLOUDY    29  24  81 NE5       29.88S WCI  24
LAND O LAKES   CLOUDY    28  22  75 CALM      29.90S
PHILLIPS       MIX PCPN  30  30  99 N6        29.89R WCI  24
TOMAHAWK       LGT RAIN  31  30  94 N3        29.89R
MEDFORD        MIX PCPN  32  31  98 NE5       29.86R WCI  27
MERRILL        CLOUDY    33  33 100 NE5         N/A  WCI  28
$$

WIZ029-030-035-036-043>047-171500-
CENTRAL WISCONSIN

CITY           SKY/WX    TMP DP  RH WIND       PRES   REMARKS
WAUSAU         LGT RAIN  33  32  96 N5        29.84S FOG     WCI  29
MOSINEE        CLOUDY    32  32 100 N5        29.86R FOG     WCI  27
MARSHFIELD     FOG       33  32  96 NE7       29.84S VSB 1   WCI  27
STEVENS POINT  CLOUDY    31  31 100 N5        29.86R FOG     WCI  26
WAUPACA        CLOUDY    34  32  94 CALM      29.84F FOG
WAUTOMA        CLOUDY    33  32  96 N6          N/A  WCI  28
WISC RAPIDS    CLOUDY    33  33 100 CALM      29.87R FOG
CAMP DOUGLAS   CLOUDY    32  32 100 NW3       29.85S FOG
$$

WIZ011>013-019>022-031-037>040-048>050-171500-
NORTHEAST WISCONSIN

CITY           SKY/WX    TMP DP  RH WIND       PRES   REMARKS
ANTIGO         CLOUDY    32  32 100 NE7       29.85S FOG     WCI  26
SHAWANO        DRIZZLE   34  32  93 NE3       29.87R
OCONTO         CLOUDY    32  32  99 N7        29.86S WCI  26
STURGEON BAY   MIX PCPN  35  34  96 NE8       29.85R FOG     WCI  29
GREEN BAY      CLOUDY    35  35 100 N13       29.85R FOG     WCI  26
MANITOWOC      CLOUDY    36  35  96 N3        29.83R FOG
APPLETON       CLOUDY    32  32 100 N12       29.81F FOG     WCI  23
CLINTONVILLE   MIX PCPN  32  32 100 N5        29.85F WCI  27
OSHKOSH        CLOUDY    33  32  96 N7        29.82S FOG     WCI  27
$$

WIZ032>034-041-042-053>061-171500-
SOUTHWEST WISCONSIN

CITY           SKY/WX    TMP DP  RH WIND       PRES   REMARKS
LA CROSSE      FOG       36  33  89 NW7       29.88R VSB 1   WCI  30
SPARTA         FOG       32  32 100 CALM      29.87S VSB 3/4
VIROQUA        CLOUDY    32  32 100 CALM      29.84S VSB 3/4
BOSCOBEL       CLOUDY    34  33  96 CALM      29.88R FOG
PRAIRIE DU CHI CLOUDY    33  32  97 CALM      29.87R FOG
PLATTEVILLE    CLOUDY    33  33 100 NW7       29.85R VSB 1/4 WCI  27
$$

WIZ056-057-062-063-064-067-068-171500-
SOUTH CENTRAL WISCONSIN

CITY           SKY/WX    TMP DP  RH WIND       PRES   REMARKS
REEDSBURG      CLOUDY    32  32 100 CALM      29.84S FOG
BARABOO/DELLS  FOG       32  32 100 CALM      29.84S VSB 1/2
LONE ROCK      LGT RAIN  34  32  92 NW6       29.86R FOG     WCI  29
MINERAL POINT  FOG       34  34 100 N7        29.83R VSB 1/4 WCI  28
MADISON        FOG       33  33 100 NW5       29.83R VSB 3/4 WCI  29
MIDDLETON      CLOUDY    34  34 100 NW7       29.84R VSB 1   WCI  28
WATERTOWN      CLOUDY    33  33 100 N3        29.80F FOG
MONROE         FOG       32  32 100 NW5       29.83R VSB 1/4 WCI  27
JANESVILLE     FOG       36  36 100 NW5       29.81R VSB 1   WCI  32
$$

WIZ051-052-058>065-066-070>072-171500-
SOUTHEAST WISCONSIN

CITY           SKY/WX    TMP DP  RH WIND       PRES   REMARKS
MILWAUKEE      DRZL/FOG  37  35  92 NW8       29.79S VSB 1/2 WCI  31
WAUKESHA       CLOUDY    34  34 100 N6        29.80S FOG     WCI  29
MILWAUKEE/TIMM DRIZZLE   36  34  93 NW6       29.81R WCI  31
RACINE         FOG       37  35  92 NW9       29.79S VSB 1/2 WCI  30
KENOSHA        FOG       36  35  96 NW9       29.78R VSB 3/4 WCI  29
FOND DU LAC    CLOUDY    33  31  92 N9        29.82S FOG     WCI  25
SHEBOYGAN      FOG       35  34  96 N7        29.81R VSB 1/4 WCI  29
WEST BEND      DRIZZLE   34  34 100 NW6       29.81R WCI  29
JUNEAU         CLOUDY    32  32  99 N8        29.82S FOG     WCI  25
$$

LSZ147-162-171500-
LAKE SUPERIOR

STATION/POSITION TIME  TEMP    WIND        PRES    WAVE
                       AIR SEA DIR/SP/G            HT/PER
                 (UTC) (F)     (DEG/KT/KT) (MB)    (FT/S)
DEVILS ISLAND    1300   34      20/  7/  8 1015.0S
PORT WING        1240   21     160/  4/  4 1014.6S
SAXON HARBOR     1230   24     210/  2/  5 1013.9S
$$

LMZ867-665-643>646-171500-
LAKE MICHIGAN

STATION/POSITION TIME  TEMP    WIND        PRES    WAVE
                       AIR SEA DIR/SP/G            HT/PER
                 (UTC) (F)     (DEG/KT/KT) (MB)    (FT/S)
NORTHPORT PIER   1240   34      50/ 15/ 21 1011.5S
SISTER BAY       1350   35     100/  8/ 13   N/A
KEWAUNEE LAKESHO 1348   35      20/  6/  9 1009.5R
SHEBOYGAN LAKESH 1300   35     350/  8/  8 1009.3R
PORT WASHINGTON  1240   36     330/  4/  6 1009.8R
MILWAUKEE LAKESH 1350   36     340/  8/ 10   N/A
KENOSHA   LAKESH 1300   36     310/ 10/ 13 1008.5
$$

TC  - TEMPERATURE IN CELSIUS
VSB - VISIBILITY IN STATUTE MILES
WCI - WIND CHILL INDEX
HX  - HEAT INDEX





USA.gov is the U.S. government's official web portal to all federal, state and local government web resources and services.